User: anonymous   Login
Location: site
(53.0000°N, 23.0500°E)
Time: 19:14:39
(UTC+01:00)
Language:

SAOCOM 1-A - Orbit

View from above orbital plane
View from above orbital plane
View from above satellite
View from above satellite

Ground track
Ground track

The orbit data is extracted from the following two-line orbital elements,

1 43641U 18076A   21021.27516235 -.00000002  00000-0  62597-5 0  9994
2 43641  97.8854 210.2883 0001415  84.3067 275.8295 14.82154150123863
Epoch (UTC): 21 January 2021 06:36:14
Eccentricity: 0.0001415
inclination: 97.8854°
perigee height: 621 km
apogee height: 623 km
right ascension of ascending node: 210.2883°
argument of perigee: 84.3067°
revolutions per day: 14.82154150
mean anomaly at epoch: 275.8295°
orbit number at epoch: 12386

The dashed part of the orbit path shows where the satellite is in the earth's shadow,  

DLR